Galaxy 35

operational
NORAD ID: 54741 Int'l Des: 2022-170 Owner: INTELU Country: US
HEOCIRCULARGSOGEO

关于 Galaxy 35

正在加载描述...

实时位置

正在加载3D地球...

即将过境

高度历史

Altitude vs Time

uPlot chart will show altitude changes over time

两行轨道根数

1 54741U 22170A 26063.18586576 -.00000174 00000-0 00000+0 0 9998
2 54741 0.0156 202.8004 0002076 141.5007 151.4392 1.00270384 11848
Epoch: Mar 4, 2026 • Age: 11 hours

当前状态

高度 35788.6 km
速度 3.07 km/s
星下点 0.03°N, 93.12°W
发射日期 Dec 13, 2022
运行时间 3.2 years
类型 other

技术详情

分类 Payload
质量 3150.00 kg
干质量 2000.00 kg
总质量 3150.00 kg
长度 7.20 m
直径 2.80 m
跨度 12.00 m
形状 Box+2 pan
制造商 MAXSS
平台类型 SSL-1300
阶段状态 In Orbit
所有者/国家 INTELU/US

大型星座

Loading constellations...